This is the latest recevied weather packets stored in our database for station/object KC9GSD. If no packets are shown the sender has not sent any weather packets the latest 10 day(s).
| Time | Temp. | Humidity | Pressure | Rain* | Wind** | Luminosity | Snow |
|---|---|---|---|---|---|---|---|
| 1777290105 | 16.67° C | 89% | 1016.6 hPa | 0 mm | - | 32 W/m² | - |
| 1777289802 | 16.67° C | 90% | 1016.7 hPa | 0 mm | - | 27 W/m² | - |
| 1777289498 | 16.67° C | 90% | 1016.6 hPa | 0 mm | - | 23 W/m² | - |
| 1777289195 | 16.11° C | 90% | 1016.6 hPa | 0 mm | - | 17 W/m² | - |
| 1777288892 | 16.11° C | 90% | 1016.6 hPa | 0 mm | - | 12 W/m² | - |
| 1777288588 | 16.11° C | 90% | 1016.4 hPa | 0 mm | - | 8 W/m² | - |
| 1777288285 | 16.11° C | 90% | 1016.4 hPa | 0 mm | - | 6 W/m² | - |
| 1777287981 | 16.11° C | 89% | 1016.3 hPa | 0 mm | - | 3 W/m² | - |
| 1777287678 | 16.11° C | 89% | 1016.3 hPa | 0 mm | - | 2 W/m² | - |
| 1777287374 | 16.11° C | 89% | 1016.2 hPa | 0 mm | - | 1 W/m² | - |
| 1777287070 | 16.11° C | 89% | 1016.3 hPa | 0 mm | - | 1 W/m² | - |
| 1777286767 | 16.11° C | 89% | 1016.4 hPa | 0 mm | - | 0 W/m² | - |
| 1777286465 | 16.11° C | 89% | 1016.3 hPa | 0 mm | - | 0 W/m² | - |
| 1777286162 | 16.11° C | 88% | 1016.1 hPa | 0 mm | - | 0 W/m² | - |
| 1777285860 | 16.11° C | 88% | 1016.1 hPa | 0 mm | - | 0 W/m² | - |
| 1777285556 | 16.11° C | 89% | 1016.1 hPa | 0 mm | - | 0 W/m² | - |
| 1777285254 | 16.11° C | 88% | 1016.1 hPa | 0 mm | - | 0 W/m² | - |
| 1777284952 | 16.11° C | 88% | 1016.3 hPa | 0 mm | - | 0 W/m² | - |
| 1777284648 | 16.11° C | 88% | 1016.1 hPa | 0 mm | - | 0 W/m² | - |
| 1777284344 | 16.11° C | 88% | 1016.2 hPa | 0 mm | - | 0 W/m² | - |
| 1777284042 | 16.11° C | 87% | 1016.1 hPa | 0 mm | - | 0 W/m² | - |
| 1777283738 | 15.56° C | 87% | 1016.1 hPa | 0 mm | - | 0 W/m² | - |
| 1777283437 | 15.56° C | 88% | 1016 hPa | 0 mm | - | 0 W/m² | - |
| 1777283135 | 15.56° C | 88% | 1016 hPa | 0 mm | - | 0 W/m² | - |
| 1777282832 | 15.56° C | 88% | 1016 hPa | 0 mm | - | 0 W/m² | - |
* Rain latest hour (hover to see other rain measurements)
** Current wind speed in m/s (hover to see current wind gust speed)